Lancaster, OH

4:06 PM EDT on July 23, 2016 (GMT -0400)
Fairfield County

Weather History for KLHQ - August, 2012

Change the Weather History Date:

Thursday, August 9, 2012

  Actual Average Record
Temperature  
Mean Temperature 77 °F -  
Max Temperature 89 °F 83 °F 97 °F (2007)
Min Temperature 66 °F 60 °F 47 °F (1989)
Cooling Degree Days 12    
Growing Degree Days 27 (Base 50)    
Moisture  
Dew Point 65 °F    
Average Humidity 82    
Maximum Humidity 100    
Minimum Humidity 46    
Precipitation  
Precipitation 0.20 in - - ()
Sea Level Pressure  
Sea Level Pressure 29.89 in    
Wind  
Wind Speed 4 mph (SSW)    
Max Wind Speed 21 mph    
Max Gust Speed 28 mph    
Visibility 6 miles    
Events Rain , Thunderstorm    
Averages and records for this station are not official NWS values.
T = Trace of Precipitation, MM = Missing Value Source: NWS Daily Summary

Daily Weather History Graph

Daily Weather History Graph

Search for Another Location

Airport or City:

Trip Planner

Search our weather history database for the weather conditions in past years. The results will help you decide how hot, cold, wet, or windy it might be!

Date:

Astronomy

Aug. 09, 2012 Rise Set
Actual Time 6:37 AM EDT 8:33 PM EDT
Civil Twilight 6:08 AM EDT 9:03 PM EDT
Nautical Twilight 5:32 AM EDT 9:38 PM EDT
Astronomical Twilight 4:53 AM EDT 10:17 PM EDT
Moon No Moon Rise 2:16 PM EDT (8/9)
Length of Visible Light 14h 55m
Length of Day
13h 56m
Waning Gibbous, 51% of the Moon is Illuminated
Aug 9
Waning Gibbous
Aug 9
Last Quarter
Aug 17
New
Aug 24
First Quarter
Aug 31
Full

Hourly Weather History & Observations

Time (EDT) Temp. Heat Index Dew Point Humidity Pressure Visibility Wind Dir Wind Speed Gust Speed Precip Events Conditions
12:53 AM 66.9 °F - 64.9 °F 93% 29.94 in 2.5 mi North 4.6 mph - N/A   Clear
1:25 AM 66.2 °F - 64.4 °F 94% 29.96 in 3.0 mi Calm Calm - N/A   Clear
1:53 AM 66.0 °F - 64.0 °F 93% 29.93 in 4.0 mi Calm Calm - N/A   Clear
2:32 AM 66.2 °F - 64.4 °F 94% 29.95 in 2.5 mi Calm Calm - N/A   Clear
2:53 AM 66.0 °F - 64.9 °F 96% 29.93 in 2.5 mi NW 3.5 mph - N/A   Clear
3:02 AM 66.2 °F - 66.2 °F 100% 29.95 in 3.0 mi Calm Calm - N/A   Partly Cloudy
3:21 AM 66.2 °F - 64.4 °F 94% 29.94 in 2.5 mi East 3.5 mph - N/A   Partly Cloudy
3:40 AM 66.2 °F - 64.4 °F 94% 29.92 in 2.0 mi SE 5.8 mph - N/A   Clear
3:46 AM 66.2 °F - 64.4 °F 94% 29.92 in 3.0 mi ESE 4.6 mph - N/A   Clear
3:53 AM 66.9 °F - 64.9 °F 93% 29.88 in 4.0 mi SE 3.5 mph - N/A   Clear
4:49 AM 66.2 °F - 64.4 °F 94% 29.91 in 2.0 mi Calm Calm - N/A   Clear
4:50 AM 66.9 °F - 64.9 °F 93% 29.89 in 2.0 mi Calm Calm - N/A   Clear
5:01 AM 68.0 °F - 66.2 °F 94% 29.93 in 3.0 mi NW 4.6 mph - N/A   Mostly Cloudy
5:53 AM 66.9 °F - 64.9 °F 93% 29.92 in 4.0 mi Calm Calm - N/A   Clear
6:53 AM 66.9 °F - 64.9 °F 93% 29.91 in 2.0 mi SW 3.5 mph - N/A   Clear
7:07 AM 66.2 °F - 64.4 °F 94% 29.93 in 2.5 mi Calm Calm - N/A   Clear
7:12 AM 66.2 °F - 64.4 °F 94% 29.94 in 1.8 mi NNW 3.5 mph - N/A   Scattered Clouds
7:39 AM 69.8 °F - 66.2 °F 88% 29.95 in 2.0 mi Calm Calm - N/A   Mostly Cloudy
7:53 AM 68.0 °F - 66.0 °F 93% 29.94 in 2.0 mi Calm Calm - N/A   Scattered Clouds
8:24 AM 69.8 °F - 66.2 °F 88% 29.95 in 3.0 mi Calm Calm - N/A   Partly Cloudy
8:53 AM 72.0 °F - 66.9 °F 84% 29.98 in 6.0 mi WNW 10.4 mph - N/A Thunderstorm Haze
9:26 AM 71.6 °F - 62.6 °F 73% 30.00 in 10.0 mi NNW 8.1 mph 18.4 mph N/A   Scattered Clouds
9:53 AM 72.0 °F - 63.0 °F 73% 29.97 in 10.0 mi Variable 5.8 mph - N/A   Mostly Cloudy
10:53 AM 75.0 °F - 63.0 °F 66% 29.97 in 10.0 mi NNW 5.8 mph - N/A   Clear
11:53 AM 78.1 °F - 63.0 °F 60% 29.92 in 10.0 mi East 3.5 mph - N/A   Clear
12:53 PM 82.9 °F 83.7 °F 62.1 °F 49% 29.89 in 10.0 mi SE 10.4 mph - N/A   Clear
1:53 PM 84.9 °F 86.1 °F 64.0 °F 49% 29.86 in 10.0 mi SSE 9.2 mph - N/A   Clear
2:53 PM 88.0 °F 89.6 °F 64.9 °F 46% 29.83 in 10.0 mi South 12.7 mph - N/A   Clear
3:53 PM 88.0 °F 89.6 °F 64.9 °F 46% 29.80 in 10.0 mi SSW 10.4 mph - N/A Thunderstorm Partly Cloudy
4:07 PM 87.8 °F 89.4 °F 64.4 °F 46% 29.82 in 10.0 mi SW 8.1 mph 17.3 mph N/A   Partly Cloudy
4:27 PM 87.8 °F 89.4 °F 64.4 °F 46% 29.81 in 10.0 mi SW 8.1 mph 17.3 mph N/A Thunderstorm Partly Cloudy
4:53 PM 84.9 °F 86.1 °F 64.0 °F 49% 29.78 in 10.0 mi West 3.5 mph - N/A Thunderstorm Partly Cloudy
5:24 PM 71.6 °F - 62.6 °F 73% 29.82 in 2.0 mi NW 16.1 mph 24.2 mph 0.08 in Rain , Thunderstorm Heavy Thunderstorms and Rain
5:35 PM 69.8 °F - 62.6 °F 78% 29.82 in 3.0 mi WNW 8.1 mph 18.4 mph 0.12 in Rain , Thunderstorm Thunderstorms and Rain
5:53 PM 70.0 °F - 63.0 °F 78% 29.82 in 5.0 mi SSW 13.8 mph 19.6 mph 0.14 in Rain , Thunderstorm Thunderstorms and Rain
6:00 PM 69.8 °F - 64.4 °F 83% 29.82 in 1.8 mi SW 16.1 mph 25.3 mph 0.02 in Rain , Thunderstorm Thunderstorms and Rain
6:09 PM 69.8 °F - 62.6 °F 78% 29.82 in 3.0 mi SSW 20.7 mph 27.6 mph 0.03 in Rain , Thunderstorm Light Thunderstorms and Rain
6:53 PM 68.0 °F - 63.0 °F 84% 29.81 in 10.0 mi Variable 3.5 mph - 0.03 in Thunderstorm Mostly Cloudy
7:12 PM 69.8 °F - 62.6 °F 78% 29.83 in 10.0 mi Variable 3.5 mph - N/A   Mostly Cloudy
7:53 PM 69.1 °F - 64.9 °F 87% 29.83 in 10.0 mi Calm Calm - 0.00 in   Mostly Cloudy
8:01 PM 69.8 °F - 64.4 °F 83% 29.89 in 10.0 mi South 8.1 mph - 0.01 in Thunderstorm Overcast
8:38 PM 69.8 °F - 66.2 °F 88% 29.86 in 5.0 mi SSW 8.1 mph - 0.02 in Rain Light Rain
8:53 PM 69.1 °F - 66.0 °F 90% 29.85 in 9.0 mi SW 5.8 mph - 0.02 in   Mostly Cloudy
9:53 PM 68.0 °F - 66.9 °F 96% 29.84 in 7.0 mi NE 3.5 mph - N/A   Mostly Cloudy
10:53 PM 68.0 °F - 66.0 °F 93% 29.81 in 5.0 mi Variable 3.5 mph - 0.01 in   Partly Cloudy
11:42 PM 68.0 °F - 66.2 °F 94% 29.81 in 5.0 mi South 10.4 mph - N/A   Scattered Clouds
11:53 PM 66.9 °F - 64.9 °F 93% 29.78 in 7.0 mi SSE 5.8 mph - N/A   Partly Cloudy